This demonstration page uses our WeatherBlox Daily Observations layout. Learn more.

Left ArrowRight Arrow

34.16533, -84.80231

Hourly Observations for May 4, 2017

Temp ( °F °C ) Dew Point ( °F °C ) Humidity (%) Winds ( mph kmh ) Pressure ( in mb ) Visibility ( mi km ) Precip ( " mm )
12:53 am 00:53 Clear 68 20 53 11.7 59 59 SE 3 6 29.87 1012 10 16 0.00 0.00
1:53 am 01:53 Cloudy 68 20 53 11.7 59 59 SSE 5 7 29.86 1011 10 16 0.00 0.00
2:53 am 02:53 Cloudy 67 19.4 54 12.2 63 63 SSE 5 7 29.85 1011 10 16 0.00 0.00
3:53 am 03:53 Cloudy 67 19.4 55 12.8 66 66 SSW 5 7 29.87 1011 10 16 0.00 0.00
4:53 am 04:53 Cloudy with Light Rain 62 16.7 59 15 90 90 S 7 11 29.90 1012 10 16 0.00 0.03
5:53 am 05:53 Cloudy with Light Rain 60 15.6 59 15 96 96 SSE 12 19 29.87 1012 10 16 0.03 0.76
6:53 am 06:53 Cloudy with Light Rain 60 15.6 59 15 96 96 SSE 17 28 29.83 1010 10 16 0.01 0.25
7:53 am 07:53 Cloudy with Light Rain 59 15 58 14.4 96 96 SE 10 17 29.86 1011 10 16 0.03 0.76
8:53 am 08:53 Cloudy with Light Rain 59 15 59 15 100 100 SE 13 20 29.83 1010 5 8 0.06 1.52
9:51 am 09:51 Cloudy with Light Rain 61 16 61 16 100 100 SE 13 20 29.83 1010 10 16 0.02 0.51
9:53 am 09:53 Cloudy with Light Rain 60 15.6 60 15.6 100 100 ESE 13 20 29.80 1009 10 16 0.02 0.51
10:07 am 10:07 Cloudy with Light Rain 61 16.1 61 16.1 100 100 ESE 8 13 29.83 1010 7 11 0.01 0.25
10:53 am 10:53 Cloudy with Light Rain 61 16.1 61 16.1 100 100 NNW 3 6 29.73 1007 6 10 0.05 1.27
11:21 am 11:21 Cloudy 62 16.7 62 16.7 100 100 SE 14 22 29.77 1008 10 16 0.00 0.03
11:53 am 11:53 Cloudy 63 17.2 62 16.7 97 97 SSE 12 19 29.76 1008 10 16 0.00 0.03
12:53 pm 12:53 Cloudy 63 17.2 61 16.1 93 93 ESE 12 19 29.72 1006 10 16 0.00 0.00
1:53 pm 13:53 Cloudy 65 18.3 62 16.7 90 90 SE 8 13 29.70 1006 10 16 0.00 0.00
2:53 pm 14:53 Cloudy 65 18.3 62 16.7 90 90 SE 8 13 29.68 1005 10 16 0.00 0.00
3:21 pm 15:21 Cloudy with Rain 64 17.8 64 17.8 100 100 SE 6 9 29.68 1005 2 3 0.08 2.03
3:31 pm 15:31 Cloudy with Rain 64 17.8 64 17.8 100 100 SSE 7 11 29.68 1005 4 6 0.09 2.29
3:53 pm 15:53 Cloudy 64 17.8 64 17.8 100 100 SE 5 7 29.64 1004 10 16 0.10 2.54
4:22 pm 16:22 Cloudy with Heavy Rain 64 17.8 64 17.8 100 100 SSE 5 7 29.65 1004 2 3 0.09 2.29
4:33 pm 16:33 Cloudy with Rain 64 17.8 64 17.8 100 100 S 6 9 29.65 1004 3 4 0.12 3.05
4:38 pm 16:38 Cloudy with Light Rain 64 17.8 64 17.8 100 100 SSE 7 11 29.65 1004 3 5 0.13 3.30
4:48 pm 16:48 Cloudy with Light Rain 64 18 64 18 100 100 S 7 11 29.62 1003 5 8 0.14 3.56
4:53 pm 16:53 Cloudy with Light Rain 65 18.3 65 18.3 100 100 S 7 11 29.60 1002 7 11 0.14 3.56
5:08 pm 17:08 Cloudy with Rain 64 17.8 64 17.8 100 100 VRB 3 6 29.62 1003 3 5 0.02 0.51
5:10 pm 17:10 Cloudy with Rain 64 17.8 64 17.8 100 100 VRB 3 6 29.62 1003 3 4 0.02 0.51
5:16 pm 17:16 Cloudy with Light Rain 64 17.8 64 17.8 100 100 S 3 6 29.62 1003 4 6 0.02 0.51
5:39 pm 17:39 Cloudy with Light Rain 65 18.3 65 18.3 100 100 S 6 9 29.62 1003 9 14 0.05 1.27
5:53 pm 17:53 Mostly Cloudy 66 18.9 66 18.9 100 100 S 6 9 29.57 1002 10 16 0.05 1.27
6:43 pm 18:43 Mostly Cloudy 67 19.4 66 18.9 97 97 S 6 9 29.59 1002 10 16 0.00 0.00
6:53 pm 18:53 Cloudy 67 19.4 66 18.9 97 97 VRB 5 7 29.56 1001 10 16 0.00 0.00
7:12 pm 19:12 Cloudy 67 19.4 65 18.3 93 93 VRB 6 9 29.59 1002 10 16 0.00 0.00
7:53 pm 19:53 Cloudy with Light Rain 65 18.3 65 18.3 100 100 S 6 9 29.56 1001 9 14 0.01 0.25
8:10 pm 20:10 Cloudy with Heavy Rain 61 16.1 60 15.6 97 97 VRB 7 11 29.62 1003 2 3 0.08 2.03
8:16 pm 20:16 Cloudy with Heavy Rain 58 14.4 58 14.4 100 100 Calm 29.62 1003 1 1 0.22 5.59
8:23 pm 20:23 Cloudy with Rain 58 14.4 58 14.4 100 100 Calm 29.62 1003 1 2 0.29 7.37
8:36 pm 20:36 Cloudy with Heavy Rain 58 14.4 58 14.4 100 100 VRB 5 7 29.62 1003 2 2 0.49 12.45
8:42 pm 20:42 Cloudy with Heavy Rain 58 14.4 58 14.4 100 100 undefined N/A 29.62 1003 2 3 0.53 13.46
8:53 pm 20:53 Cloudy with Rain 58 14.4 58 14.4 100 100 VRB 5 7 29.60 1002 5 8 0.56 14.22
9:25 pm 21:25 Cloudy with Light Rain 58 14.4 58 14.4 100 100 Calm 29.62 1003 6 10 0.10 2.54
9:40 pm 21:40 Cloudy 58 14.4 58 14.4 100 100 Calm 29.62 1003 10 16 0.10 2.54
9:53 pm 21:53 Cloudy with Light Rain 58 14.4 58 14.4 100 100 Calm 29.60 1002 10 16 0.10 2.54
10:37 pm 22:37 Cloudy 58 14.4 58 14.4 100 100 Calm 29.62 1003 10 16 0.02 0.51
10:53 pm 22:53 Cloudy 57 13.9 57 13.9 100 100 Calm 29.58 1002 10 16 0.02 0.51
11:53 pm 23:53 Clear 55 12.8 55 12.8 100 100 Calm 29.58 1002 10 16 0.00 0.00

Powered by AerisWeather